Location: Spruce Knob
(38.6995°N, 79.5330°W)
Time: 21:54:30
(UTC-04:00)

A-11 Canister half - Pass Details

Date: 04 February 2022
Orbit: 1513 x 1686 km, 47.2° (Epoch: 24 May)

Event Time Altitude Azimuth Distance (km) Brightness Sun altitude
Rises 14:17:39 0° 238° (WSW) 4,858 12.5 29.9°
Reaches altitude 10° 14:20:49 10° 239° (WSW) 3,851 12.2 29.6°
Maximum altitude 14:30:39 88° 329° (NNW) 1,587 9.6 28.6°
Drops below altitude 10° 14:40:09 10° 60° (ENE) 3,724 10.6 27.6°
Sets 14:43:09 0° 61° (ENE) 4,692 11.0 27.2°
